Regional Weather Roundup
Issued by NWS

Home | Current Version | Previous Version | Graphics & Text | Print | Product List | Glossary On
Versions: 1 2 3 4 5 6 7 8 9 10 11 12 13 14 15 16 17 18 19 20 21 22 23 24 25 26 27 28 29 30 31 32 33 34 35 36 37 38 39 40 41 42 43 44 45 46 47 48 49 50
000
ASUS43 KTOP 231108
RWRKS

WEATHER ROUNDUP FOR KANSAS
NATIONAL WEATHER SERVICE GOODLAND KS
600 AM CDT SAT AUG 23 2014

NOTE:  "FAIR" INDICATES FEW OR NO CLOUDS BELOW 12,000 FEET WITH NO
SIGNIFICANT WEATHER AND/OR OBSTRUCTIONS TO VISIBILITY.

KSZ001>006-013>018-027>032-041>047-231200-
NORTHWEST KANSAS

CITY           SKY/WX    TMP DP  RH WIND       PRES   REMARKS
GOODLAND       MOCLDY    64  64 100 W5        29.91F
HAYS           PTCLDY    68  63  83 S6        29.85S
HILL CITY      CLOUDY    68  66  93 VRB5      29.85F
RUSSELL        PTCLDY    68  63  84 S9        29.83F
$$

KSZ061>065-074>080-084>089-231200-
SOUTHWEST KANSAS

CITY           SKY/WX    TMP DP  RH WIND       PRES   REMARKS
DODGE CITY     CLEAR     66  61  84 S8        29.91R
ELKHART          N/A     72  57  59 SW12        N/A
GARDEN CITY    PTCLDY    66  62  87 S7        29.90S
GREAT BEND     CLEAR     72  57  60 S9        29.87S
LIBERAL        PTCLDY    66  59  77 S8        29.94S
PRATT          CLEAR     68  54  60 S9        29.91R
$$

KSZ066>073-081>083-090>101-231200-
SOUTHEAST KANSAS

CITY           SKY/WX    TMP DP  RH WIND       PRES   REMARKS
CHANUTE        CLEAR     76  69  79 S12       29.92F
COFFEYVILLE    CLEAR     77  69  76 S10       29.92F
HUTCHINSON     CLEAR     73  60  63 S7        29.87F
MEDICINE LODGE   N/A     73  55  53 SE6       29.89S
NEWTON         CLEAR     77  55  47 S13       29.92S
PARSONS        CLEAR     75  69  81 VRB5      29.94S
WICHITA INTL   PTCLDY    74  61  63 S12       29.89S
WICHITA JABRA  CLEAR     74  62  66 S12       29.89F
WICHITA MCCONL CLEAR     73  63  68 S10       29.90F
WINFIELD       CLEAR     76  62  62 S10       29.92S
$$

KSZ007>012-019>026-033>040-048>060-102>105-231200-
NORTHEAST KANSAS

CITY           SKY/WX    TMP DP  RH WIND       PRES   REMARKS
CONCORDIA      CLOUDY    73  73 100 E9        29.86R FOG
EMPORIA        CLEAR     72  65  78 S14       29.89S
LAWRENCE       CLOUDY    79  69  71 SE7       29.88S
MANHATTAN      PTCLDY    78  64  61 SW7       29.85R
MARYSVILLE     PTCLDY    72  70  94 E8        29.88F
OLATHE IND     MOCLDY    75  70  84 S9        29.91S
OLATHE EXE     MOCLDY    75  70  84 S9        29.90S
SALINA         CLEAR     77  62  59 S13       29.84S
TOPEKA BILLARD PTCLDY    80  68  66 S7        29.87R
TOPEKA FORBES  PTCLDY    76  67  73 S9        29.88R
$$



USA.gov is the U.S. government's official web portal to all federal, state and local government web resources and services.